Lexington Weather

Lexington, Massachusetts, USA

39°F
3/2/2024 8:45am 
  • Lexington Conditions: Mostly cloudy
  • Temperature: 39.0°F / 3.9°CWarmer 1.4°F than last hour.
  • Dew Point: 33.1°FIncreased 0.7°Fsince last hour.
  • Relative Humidity: 79%Decreased 2.0% since last hour.
  • Wind: Calm, 10-min avg: Calm, gust: None
  • Barometer: 30.45 in Steady
  • Visibility: 10 miles
  • Rain Today: 0.00 in
  •   

Regional Weather Roundup
for Boston, MA

        
000
ASUS41 KBOX 282010
RWRBOX

REGIONAL WEATHER ROUNDUP
NATIONAL WEATHER SERVICE BOSTON/NORTON MA
300 PM EST WED FEB 28 2024

NOTE:  "FAIR" INDICATES FEW OR NO CLOUDS BELOW 12,000 FEET WITH NO 
SIGNIFICANT WEATHER AND/OR OBSTRUCTIONS TO VISIBILITY.

MAZALL-282100-
EASTERN MASSACHUSETTS
  
CITY           SKY/WX    TMP DP  RH WIND       PRES   REMARKS
BOSTON         LGT RAIN  54  52  93 S18       29.59F                  
BEVERLY        CLOUDY    54  51  90 S14       29.58F                  
LAWRENCE       CLOUDY    57  53  86 S9G20     29.57F                  
BEDFORD        CLOUDY    57  53  86 S15G24    29.56F                  
NORWOOD        LGT RAIN  58  52  80 S17G26    29.61F                  
MARSHFIELD     CLOUDY    57  52  82 SW23G38   29.65F                  
PLYMOUTH       CLOUDY    55  52  89 SW14G38   29.66F                  
TAUNTON        LGT RAIN  56  51  84 S13G30    29.66F                  
NEW BEDFORD    LGT RAIN  52  50  93 S16G31    29.69F                  
$$

MAZALL-282100-
CAPE COD AND THE ISLANDS
  
CITY           SKY/WX    TMP DP  RH WIND       PRES   REMARKS
FALMOUTH       CLOUDY    54  54 100 SW25G38   29.72F FOG              
HYANNIS        FOG       48  47  96 S13G26    29.73F VSB 1            
CHATHAM        CLOUDY    52  29  41 S12G32    29.74F HAZE             
PROVINCETOWN   LGT RAIN  48  48 100 S18G31    29.69F VSB 3/4          
NANTUCKET      CLOUDY    49  49 100 S26G38    29.76F FOG              
MARTHAS VNYRD  FOG       50  49  96 S16G28    29.74S VSB 1            
$$
 
MAZALL-282100-
CENTRAL AND WESTERN MASSACHUSETTS
  
CITY           SKY/WX    TMP DP  RH WIND       PRES   REMARKS
WORCESTER      CLOUDY    54  51  90 SW18G37   29.56F                  
FITCHBURG      CLOUDY    57  52  83 S17G26    29.55F                  
ORANGE         LGT RAIN  54  52  93 S12G24    29.53F                  
SPRINGFIELD    LGT RAIN  55  52  88 SW15      29.53F                  
WESTFIELD      LGT RAIN  54  52  93 S8        29.55F                  
NORTH ADAMS    CLOUDY    60  52  74 S7        29.48F                  
PITTSFIELD     CLOUDY    53  51  93 S13G29    29.49F                  
$$
 
RIZALL-282100-
RHODE ISLAND
  
CITY           SKY/WX    TMP DP  RH WIND       PRES   REMARKS
PROVIDENCE     CLOUDY    55  53  93 SW17G33   29.66F                  
NEWPORT        LGT RAIN  50  49  96 S12G23    29.69F FOG              
BLOCK ISLAND   CLOUDY    49  48  97 SW22G29   29.70R FOG              
SMITHFIELD       N/A    N/A N/A N/A MISG        N/A                   
WESTERLY       CLOUDY    51  48  89 SW10G21   29.69F FOG              
$$
 
CTZALL-282100-
CONNECTICUT
  
CITY           SKY/WX    TMP DP  RH WIND       PRES   REMARKS
BRADLEY INTL   RAIN      55  52  89 S22       29.55F FOG              
HARTFORD       LGT RAIN  56  52  86 S16G25    29.56F FOG              
PLAINVILLE     LGT RAIN  53  53 100 S13G20    29.56F                  
BRIDGEPORT     LGT RAIN  51  49  92 S17       29.58F                  
DANBURY        LGT RAIN  55  51  86 S10       29.56F                  
GROTON         CLOUDY    52  51  97 S18G26    29.65F                  
NEW HAVEN      LGT RAIN  51  49  92 S20G28    29.59F FOG              
CHESTER        LGT RAIN  54  54 100 S16G23    29.62F                  
MERIDEN        LGT RAIN  53  49  86 S14G24    29.58F                  
WILLIMANTIC    CLOUDY    55  51  86 S10G24    29.61F                  
OXFORD         LGT RAIN  52  51  97 S14G22    29.57F FOG              
$$

MEZ002-015-021-024-NHZ003-005-008-011-012-014-VTZ005-008-282100-
NORTHERN NEW ENGLAND
  
CITY           SKY/WX    TMP DP  RH WIND       PRES   REMARKS
PORTLAND ME    FOG       46  46 100 S15G28    29.55F VSB 3/4          
BANGOR ME      CLOUDY    48  46  93 S24G40    29.58F FOG              
CONCORD NH     CLOUDY    55  53  93 S12       29.52S                  
MANCHESTER NH  CLOUDY    58  52  80 S18G28    29.51F                  
NASHUA NH      CLOUDY    57  57 100 S8G16     29.55F                  
PORTSMOUTH NH  CLOUDY    60  53  80 S17G23    29.53F                  
JAFFREY NH     CLOUDY    55  51  86 S15G32    29.53F                  
KEENE NH       LGT RAIN  55  53  93 S15G21    29.51F                  
BURLINGTON VT  CLOUDY    60  51  72 S30G38    29.31F                  
MT. WASHINGTON LGT RAIN  34  34 100 SW39G53     N/A  VSB 0   WCI  18  
$$

NYZ052-076-282100-
EASTERN NEW YORK
  
CITY           SKY/WX    TMP DP  RH WIND       PRES   REMARKS
ALBANY         CLOUDY    58  53  84 S20G32    29.45R                  
NEW YORK CITY  LGT RAIN  53  49  86 S13       29.58F FOG              
$$
 
ANZALL-282100-
MARINE OBSERVATIONS
  
STATION/POSITION TIME  TEMP    WIND        PRES    VSBY  WAVE
                       AIR SEA DIR/SP/G                  HT/PER
                 (UTC) (F)     (DEG/KT/KT) (MB)    (MI)  (FT/S)
BOSTON BUOY      1950   49 40  190/ 17/ 23 1002.8F         5/ 6
BUZZARDS BAY     1900   47     200/ 23/ 24 1006.3F
NANTUCKET SOUND  1950   47 38  180/ 23/ 33 1006.1F         3/ 4
MASS BAY-STELLWA 1804   47 40  190/ 16/ 19 1004.3F  1 7/8  6/ 6
ISLE OF SHOALS   1900   50     180/ 29/ 32 1001.7F
S OF BLOCK IS    1956      42                N/A          11/10
$$

......................KEY.........................
  SKY/WX - SKY CONDITION/PRESENT WEATHER
  TMP    - TEMPERATURE IN FAHRENHEIT
  DWPT   - DEWPOINT IN FAHRENHEIT
  RH     - RELATIVE HUMIDITY IN PERCENT
  WIND   - DIRECTION AND SPEED IN MPH
  PRES   - MEAN SEA LEVEL PRESSURE IN INCHES OF HG
  WCI    - WIND CHILL INDEX
  VSB    - VISIBILITY IN MILES
  HX     - HEAT INDEX
  TC     - TEMPERATURE IN CELSIUS
  VRB    - VARIABLE WIND DIRECTION
  N/A    - NOT AVAILABLE
  
      

Other recent Regional Weather Roundups

Sat Mar 2, 8:10am EST

Sat Mar 2, 7:10am EST

Sat Mar 2, 6:10am EST

Sat Mar 2, 5:10am EST

Sat Mar 2, 4:10am EST

Sat Mar 2, 3:10am EST

Sat Mar 2, 2:10am EST

Sat Mar 2, 1:10am EST

Sat Mar 2, 12:10am EST

Fri Mar 1, 11:10pm EST

Fri Mar 1, 10:10pm EST

Fri Mar 1, 9:10pm EST

Fri Mar 1, 8:10pm EST

Fri Mar 1, 7:10pm EST

Fri Mar 1, 6:10pm EST

Fri Mar 1, 5:10pm EST

Fri Mar 1, 4:10pm EST

Fri Mar 1, 3:10pm EST

Fri Mar 1, 2:10pm EST

Fri Mar 1, 1:10pm EST

Fri Mar 1, 12:10pm EST

Fri Mar 1, 11:10am EST

Fri Mar 1, 10:10am EST

Fri Mar 1, 9:10am EST

Fri Mar 1, 8:10am EST

Fri Mar 1, 7:10am EST

Fri Mar 1, 6:10am EST

Fri Mar 1, 5:10am EST

Fri Mar 1, 4:10am EST

Fri Mar 1, 3:10am EST

Fri Mar 1, 2:10am EST

Fri Mar 1, 1:10am EST

Fri Mar 1, 12:10am EST

Thu Feb 29, 11:10pm EST

Thu Feb 29, 10:10pm EST

Thu Feb 29, 9:10pm EST

Thu Feb 29, 8:10pm EST

Thu Feb 29, 7:10pm EST

Thu Feb 29, 6:10pm EST

Thu Feb 29, 5:10pm EST

Thu Feb 29, 4:10pm EST

Thu Feb 29, 3:10pm EST

Thu Feb 29, 2:10pm EST

Thu Feb 29, 1:10pm EST

Thu Feb 29, 12:10pm EST

Thu Feb 29, 11:10am EST

Thu Feb 29, 10:10am EST

Thu Feb 29, 9:10am EST

Thu Feb 29, 8:10am EST

Thu Feb 29, 7:10am EST

Thu Feb 29, 6:10am EST

Thu Feb 29, 5:10am EST

Thu Feb 29, 4:10am EST

Thu Feb 29, 3:10am EST

Thu Feb 29, 2:10am EST

Thu Feb 29, 1:10am EST

Thu Feb 29, 12:10am EST

Wed Feb 28, 11:10pm EST

Wed Feb 28, 10:10pm EST

Wed Feb 28, 9:10pm EST

Wed Feb 28, 8:10pm EST

Wed Feb 28, 7:10pm EST

Wed Feb 28, 6:10pm EST

Wed Feb 28, 5:10pm EST

Wed Feb 28, 4:10pm EST

Wed Feb 28, 2:10pm EST

Wed Feb 28, 1:10pm EST

Wed Feb 28, 12:10pm EST

Wed Feb 28, 11:10am EST

Wed Feb 28, 10:10am EST

Wed Feb 28, 9:10am EST

Wed Feb 28, 8:10am EST

Wed Feb 28, 7:10am EST

Wed Feb 28, 6:10am EST

Wed Feb 28, 5:10am EST

Wed Feb 28, 4:10am EST

Wed Feb 28, 3:10am EST

Wed Feb 28, 2:10am EST

Wed Feb 28, 1:10am EST

Wed Feb 28, 12:10am EST

Tue Feb 27, 11:10pm EST

Tue Feb 27, 10:10pm EST

Tue Feb 27, 9:10pm EST

Tue Feb 27, 8:10pm EST

Tue Feb 27, 7:10pm EST

Tue Feb 27, 6:10pm EST

Tue Feb 27, 5:10pm EST

Tue Feb 27, 4:10pm EST

Tue Feb 27, 3:10pm EST

Tue Feb 27, 2:10pm EST

Tue Feb 27, 1:10pm EST

Tue Feb 27, 12:10pm EST

Tue Feb 27, 11:10am EST

Tue Feb 27, 10:10am EST

Tue Feb 27, 9:10am EST

Tue Feb 27, 8:10am EST

Tue Feb 27, 7:10am EST

Tue Feb 27, 6:10am EST

Tue Feb 27, 5:10am EST

Tue Feb 27, 4:10am EST

Tue Feb 27, 3:10am EST

Tue Feb 27, 2:10am EST

Tue Feb 27, 1:10am EST

Tue Feb 27, 12:10am EST

Mon Feb 26, 11:10pm EST

Mon Feb 26, 10:10pm EST

Mon Feb 26, 9:10pm EST

Mon Feb 26, 8:10pm EST

Mon Feb 26, 7:10pm EST

Mon Feb 26, 6:10pm EST

Mon Feb 26, 5:10pm EST

Mon Feb 26, 4:10pm EST

Mon Feb 26, 3:10pm EST

Mon Feb 26, 2:10pm EST

Mon Feb 26, 1:10pm EST

Mon Feb 26, 12:10pm EST

Mon Feb 26, 11:10am EST

Mon Feb 26, 10:10am EST

Mon Feb 26, 9:10am EST

Mon Feb 26, 8:10am EST

Mon Feb 26, 7:10am EST

Mon Feb 26, 6:10am EST

Mon Feb 26, 5:10am EST

Mon Feb 26, 4:10am EST

Mon Feb 26, 3:10am EST

Mon Feb 26, 2:10am EST

Mon Feb 26, 1:10am EST

Mon Feb 26, 12:10am EST

Sun Feb 25, 11:10pm EST

Sun Feb 25, 10:10pm EST

Sun Feb 25, 9:10pm EST

Sun Feb 25, 8:10pm EST

Sun Feb 25, 7:10pm EST

Sun Feb 25, 6:10pm EST

Sun Feb 25, 5:10pm EST

Sun Feb 25, 4:10pm EST

Sun Feb 25, 3:10pm EST

Sun Feb 25, 2:10pm EST

Sun Feb 25, 1:10pm EST

Sun Feb 25, 12:10pm EST

Sun Feb 25, 11:10am EST

Sun Feb 25, 10:10am EST

Sun Feb 25, 9:10am EST

Sun Feb 25, 8:10am EST

Sun Feb 25, 7:10am EST

Sun Feb 25, 6:10am EST

Sun Feb 25, 5:10am EST

Sun Feb 25, 4:10am EST

Sun Feb 25, 3:10am EST

Sun Feb 25, 2:10am EST

Sun Feb 25, 1:10am EST

Sun Feb 25, 12:10am EST

Sat Feb 24, 11:10pm EST

Sat Feb 24, 10:10pm EST

Sat Feb 24, 9:10pm EST

Sat Feb 24, 8:10pm EST

Sat Feb 24, 7:10pm EST

Sat Feb 24, 6:10pm EST

Sat Feb 24, 5:10pm EST

Sat Feb 24, 4:10pm EST

Sat Feb 24, 3:10pm EST

Sat Feb 24, 2:10pm EST

Sat Feb 24, 1:10pm EST

Sat Feb 24, 12:10pm EST

Sat Feb 24, 11:10am EST

Sat Feb 24, 10:10am EST

Sat Feb 24, 9:10am EST